| time (UTC) | temp C | wind direction | speed KPH | gust KPH | rain 1hr cm | rain 24hr cm | rain mn cm | humidity % | barometer mb |
| 20260506043046 | 12 | 256 | 3.2 | 11.3 | 0.00 | 0.08 | 0.08 | 87 | 1016.7 |
| 20260506042529 | 12 | 246 | 3.2 | 9.7 | 0.00 | 0.08 | 0.08 | 87 | 1016.7 |
| 20260506042028 | 12 | 239 | 4.8 | 9.7 | 0.00 | 0.08 | 0.08 | 87 | 1016.6 |
| 20260506041557 | 12 | 231 | 3.2 | 9.7 | 0.00 | 0.08 | 0.08 | 87 | 1016.5 |
| 20260506041030 | 12 | 225 | 4.8 | 11.3 | 0.00 | 0.08 | 0.08 | 87 | 1016.5 |
| 20260506040529 | 12 | 259 | 4.8 | 12.9 | 0.00 | 0.08 | 0.08 | 87 | 1016.4 |
| 20260506040042 | 12 | 220 | 3.2 | 12.9 | 0.00 | 0.08 | 0.08 | 86 | 1016.3 |
| 20260506035530 | 12 | 251 | 3.2 | 12.9 | 0.00 | 0.08 | 0.08 | 86 | 1016.2 |
| 20260506035029 | 12 | 209 | 4.8 | 12.9 | 0.00 | 0.08 | 0.08 | 86 | 1016.2 |
| 20260506034621 | 12 | 234 | 3.2 | 9.7 | 0.00 | 0.08 | 0.08 | 86 | 1016.2 |
| 20260506034029 | 12 | 228 | 3.2 | 11.3 | 0.00 | 0.08 | 0.08 | 86 | 1016.1 |
| 20260506033529 | 12 | 227 | 3.2 | 12.9 | 0.00 | 0.08 | 0.08 | 86 | 1016.1 |
| 20260506033039 | 12 | 219 | 4.8 | 12.9 | 0.00 | 0.08 | 0.08 | 86 | 1016.0 |
| 20260506032529 | 12 | 223 | 3.2 | 14.5 | 0.00 | 0.08 | 0.08 | 86 | 1015.9 |
| 20260506032029 | 12 | 240 | 4.8 | 14.5 | 0.00 | 0.08 | 0.08 | 86 | 1015.9 |
| 20260506031541 | 12 | 236 | 3.2 | 14.5 | 0.00 | 0.08 | 0.08 | 85 | 1015.9 |
| 20260506031032 | 12 | 217 | 4.8 | 9.7 | 0.00 | 0.08 | 0.08 | 85 | 1015.8 |
| 20260506030528 | 12 | 271 | 3.2 | 8.0 | 0.00 | 0.08 | 0.08 | 85 | 1015.7 |
| 20260506030043 | 12 | 218 | 3.2 | 9.7 | 0.00 | 0.08 | 0.08 | 85 | 1015.7 |
| 20260506025531 | 12 | 236 | 3.2 | 9.7 | 0.00 | 0.08 | 0.08 | 85 | 1015.7 |
| 20260506025028 | 12 | 259 | 3.2 | 11.3 | 0.00 | 0.08 | 0.08 | 84 | 1015.5 |
| 20260506024543 | 12 | 238 | 3.2 | 11.3 | 0.00 | 0.08 | 0.08 | 84 | 1015.5 |
| 20260506024028 | 12 | 233 | 3.2 | 11.3 | 0.00 | 0.08 | 0.08 | 84 | 1015.5 |
| 20260506023529 | 12 | 283 | 4.8 | 14.5 | 0.00 | 0.08 | 0.08 | 83 | 1015.4 |
| 20260506023101 | 13 | 246 | 3.2 | 14.5 | 0.00 | 0.08 | 0.08 | 83 | 1015.2 |
| 20260506022529 | 13 | 271 | 4.8 | 14.5 | 0.00 | 0.08 | 0.08 | 82 | 1015.2 |
| 20260506022029 | 13 | 255 | 4.8 | 12.9 | 0.00 | 0.08 | 0.08 | 82 | 1015.2 |
| 20260506021538 | 13 | 262 | 3.2 | 14.5 | 0.00 | 0.08 | 0.08 | 81 | 1015.2 |
| 20260506021029 | 13 | 276 | 4.8 | 14.5 | 0.00 | 0.08 | 0.08 | 82 | 1015.2 |
| 20260506020528 | 13 | 242 | 4.8 | 17.7 | 0.00 | 0.08 | 0.08 | 81 | 1015.3 |
| 20260506020039 | 13 | 281 | 6.4 | 19.3 | 0.00 | 0.08 | 0.08 | 80 | 1015.3 |
| 20260506015529 | 13 | 231 | 4.8 | 19.3 | 0.00 | 0.08 | 0.08 | 79 | 1015.3 |
| 20260506015031 | 14 | 255 | 3.2 | 14.5 | 0.00 | 0.08 | 0.08 | 80 | 1015.3 |
| 20260506014545 | 14 | 226 | 4.8 | 14.5 | 0.00 | 0.08 | 0.08 | 78 | 1015.3 |
| 20260506014028 | 14 | 217 | 4.8 | 17.7 | 0.00 | 0.08 | 0.08 | 78 | 1015.3 |
| 20260506013528 | 14 | 211 | 8.0 | 17.7 | 0.00 | 0.08 | 0.08 | 78 | 1015.3 |
| 20260506013044 | 14 | 268 | 4.8 | 17.7 | 0.00 | 0.08 | 0.08 | 78 | 1015.2 |
| 20260506012529 | 14 | 243 | 6.4 | 17.7 | 0.00 | 0.08 | 0.08 | 77 | 1015.3 |
| 20260506012029 | 14 | 311 | 4.8 | 17.7 | 0.00 | 0.08 | 0.08 | 76 | 1015.1 |
| 20260506011549 | 14 | 271 | 3.2 | 17.7 | 0.00 | 0.08 | 0.08 | 78 | 1015.2 |
| 20260506011029 | 14 | 198 | 4.8 | 17.7 | 0.00 | 0.08 | 0.08 | 77 | 1015.2 |
| 20260506010529 | 14 | 189 | 4.8 | 16.1 | 0.00 | 0.08 | 0.08 | 78 | 1015.1 |
| 20260506010051 | 14 | 296 | 9.7 | 17.7 | 0.00 | 0.08 | 0.08 | 77 | 1015.1 |
| 20260506005529 | 14 | 277 | 6.4 | 17.7 | 0.00 | 0.08 | 0.08 | 77 | 1015.1 |
| 20260506005029 | 15 | 303 | 8.0 | 17.7 | 0.00 | 0.08 | 0.08 | 76 | 1015.2 |
| 20260506004559 | 15 | 292 | 9.7 | 17.7 | 0.00 | 0.08 | 0.08 | 75 | 1015.0 |
| 20260506004029 | 15 | 285 | 4.8 | 14.5 | 0.00 | 0.08 | 0.08 | 76 | 1015.0 |
| 20260506003529 | 15 | 291 | 6.4 | 14.5 | 0.00 | 0.08 | 0.08 | 77 | 1015.0 |
| 20260506003102 | 15 | 223 | 6.4 | 17.7 | 0.00 | 0.08 | 0.08 | 77 | 1015.0 |
| 20260506002529 | 15 | 225 | 6.4 | 19.3 | 0.00 | 0.08 | 0.08 | 76 | 1015.0 |
| 20260506002029 | 15 | 210 | 8.0 | 19.3 | 0.00 | 0.08 | 0.08 | 75 | 1014.9 |
| 20260506001547 | 15 | 290 | 8.0 | 19.3 | 0.00 | 0.08 | 0.08 | 75 | 1014.9 |
| 20260506001029 | 15 | 231 | 8.0 | 19.3 | 0.00 | 0.08 | 0.08 | 77 | 1014.9 |
| 20260506000529 | 15 | 292 | 6.4 | 16.1 | 0.00 | 0.08 | 0.08 | 77 | 1014.7 |
| 20260506000046 | 15 | 284 | 8.0 | 16.1 | 0.00 | 0.08 | 0.08 | 76 | 1014.9 |
| 20260505235529 | 15 | 212 | 4.8 | 17.7 | 0.00 | 0.08 | 0.08 | 78 | 1014.7 |
| 20260505235029 | 14 | 289 | 8.0 | 17.7 | 0.00 | 0.08 | 0.08 | 80 | 1014.9 |
| 20260505234601 | 14 | 222 | 8.0 | 17.7 | 0.00 | 0.08 | 0.08 | 79 | 1014.9 |
| 20260505234031 | 14 | 294 | 6.4 | 22.5 | 0.00 | 0.08 | 0.08 | 79 | 1015.0 |
| 20260505233532 | 13 | 284 | 9.7 | 22.5 | 0.00 | 0.08 | 0.08 | 79 | 1015.0 |
| 20260505233042 | 13 | 284 | 8.0 | 22.5 | 0.00 | 0.08 | 0.08 | 79 | 1015.0 |
| 20260505232528 | 14 | 277 | 6.4 | 16.1 | 0.00 | 0.08 | 0.08 | 79 | 1015.0 |
| 20260505232030 | 13 | 250 | 8.0 | 17.7 | 0.00 | 0.08 | 0.08 | 79 | 1015.1 |
| 20260505231540 | 13 | 274 | 8.0 | 17.7 | 0.00 | 0.08 | 0.08 | 80 | 1015.0 |
| 20260505231029 | 13 | 248 | 6.4 | 17.7 | 0.00 | 0.08 | 0.08 | 80 | 1015.1 |
| 20260505230528 | 13 | 277 | 6.4 | 16.1 | 0.00 | 0.08 | 0.08 | 80 | 1015.1 |
| 20260505230045 | 13 | 272 | 6.4 | 16.1 | 0.00 | 0.08 | 0.08 | 80 | 1015.0 |
| 20260505225529 | 13 | 290 | 6.4 | 19.3 | 0.00 | 0.08 | 0.08 | 80 | 1015.0 |
| 20260505225033 | 13 | 249 | 6.4 | 19.3 | 0.00 | 0.08 | 0.08 | 80 | 1015.1 |
| 20260505224546 | 14 | 282 | 4.8 | 14.5 | 0.00 | 0.08 | 0.08 | 80 | 1015.1 |
| 20260505224028 | 14 | 284 | 4.8 | 16.1 | 0.00 | 0.08 | 0.08 | 80 | 1015.1 |
| 20260505223528 | 14 | 229 | 6.4 | 16.1 | 0.00 | 0.08 | 0.08 | 79 | 1015.1 |
| 20260505223044 | 14 | 275 | 6.4 | 16.1 | 0.00 | 0.08 | 0.08 | 79 | 1015.1 |
| 20260505222528 | 14 | 190 | 6.4 | 16.1 | 0.00 | 0.08 | 0.08 | 79 | 1015.1 |
| 20260505222030 | 14 | 263 | 6.4 | 16.1 | 0.00 | 0.08 | 0.08 | 79 | 1015.2 |
| 20260505221543 | 14 | 229 | 6.4 | 17.7 | 0.00 | 0.08 | 0.08 | 79 | 1015.2 |
| 20260505221029 | 15 | 274 | 6.4 | 17.7 | 0.00 | 0.08 | 0.08 | 78 | 1015.1 |
| 20260505220528 | 15 | 203 | 6.4 | 16.1 | 0.00 | 0.08 | 0.08 | 78 | 1015.2 |
| 20260505220057 | 15 | 281 | 4.8 | 17.7 | 0.00 | 0.08 | 0.08 | 78 | 1015.1 |
| 20260505215528 | 15 | 267 | 6.4 | 17.7 | 0.00 | 0.08 | 0.08 | 77 | 1015.1 |
| 20260505215028 | 15 | 271 | 6.4 | 19.3 | 0.00 | 0.08 | 0.08 | 77 | 1015.2 |
| 20260505214540 | 15 | 260 | 6.4 | 19.3 | 0.00 | 0.08 | 0.08 | 74 | 1015.3 |
| 20260505214028 | 15 | 263 | 6.4 | 14.5 | 0.00 | 0.08 | 0.08 | 76 | 1015.2 |
| 20260505213528 | 15 | 284 | 4.8 | 14.5 | 0.00 | 0.08 | 0.08 | 74 | 1015.2 |
| 20260505213046 | 15 | 251 | 4.8 | 11.3 | 0.00 | 0.08 | 0.08 | 76 | 1015.3 |
| 20260505212528 | 14 | 196 | 4.8 | 14.5 | 0.00 | 0.08 | 0.08 | 77 | 1015.3 |
| 20260505212029 | 14 | 300 | 4.8 | 14.5 | 0.00 | 0.08 | 0.08 | 77 | 1015.4 |
| 20260505211549 | 14 | 219 | 4.8 | 14.5 | 0.00 | 0.08 | 0.08 | 77 | 1015.4 |
| 20260505211032 | 14 | 279 | 4.8 | 14.5 | 0.00 | 0.08 | 0.08 | 77 | 1015.4 |
| 20260505210529 | 14 | 224 | 3.2 | 14.5 | 0.00 | 0.08 | 0.08 | 77 | 1015.5 |
| 20260505210044 | 14 | 273 | 6.4 | 14.5 | 0.00 | 0.08 | 0.08 | 77 | 1015.3 |
| 20260505205529 | 15 | 232 | 3.2 | 14.5 | 0.00 | 0.08 | 0.08 | 76 | 1015.4 |
| 20260505205032 | 14 | 217 | 3.2 | 14.5 | 0.00 | 0.08 | 0.08 | 78 | 1015.3 |
| 20260505204546 | 14 | 286 | 4.8 | 14.5 | 0.00 | 0.08 | 0.08 | 77 | 1015.2 |
| 20260505204029 | 14 | 235 | 6.4 | 16.1 | 0.00 | 0.08 | 0.08 | 77 | 1015.3 |
| 20260505203529 | 14 | 278 | 4.8 | 16.1 | 0.00 | 0.08 | 0.08 | 77 | 1015.3 |
| 20260505203040 | 14 | 210 | 4.8 | 16.1 | 0.00 | 0.08 | 0.08 | 77 | 1015.3 |
| 20260505202529 | 14 | 236 | 3.2 | 17.7 | 0.00 | 0.08 | 0.08 | 78 | 1015.3 |
| 20260505202028 | 14 | 207 | 4.8 | 19.3 | 0.00 | 0.08 | 0.08 | 78 | 1015.3 |
| 20260505201547 | 14 | 213 | 8.0 | 19.3 | 0.00 | 0.08 | 0.08 | 77 | 1015.4 |
| 20260505201030 | 14 | 194 | 6.4 | 16.1 | 0.00 | 0.08 | 0.08 | 77 | 1015.4 |
| 20260505200532 | 14 | 281 | 6.4 | 16.1 | 0.00 | 0.08 | 0.08 | 78 | 1015.4 |
| 20260505200045 | 14 | 292 | 6.4 | 19.3 | 0.00 | 0.08 | 0.08 | 78 | 1015.4 |
| 20260505195528 | 14 | 271 | 6.4 | 19.3 | 0.00 | 0.08 | 0.08 | 76 | 1015.4 |
| 20260505195028 | 14 | 223 | 6.4 | 17.7 | 0.00 | 0.08 | 0.08 | 77 | 1015.4 |
| 20260505194547 | 15 | 281 | 6.4 | 17.7 | 0.00 | 0.08 | 0.08 | 76 | 1015.3 |
| 20260505194029 | 15 | 290 | 4.8 | 14.5 | 0.00 | 0.08 | 0.08 | 77 | 1015.4 |
| 20260505193528 | 15 | 281 | 6.4 | 19.3 | 0.00 | 0.08 | 0.08 | 79 | 1015.3 |
| 20260505193048 | 13 | 278 | 6.4 | 19.3 | 0.00 | 0.08 | 0.08 | 80 | 1015.4 |
| 20260505192530 | 13 | 269 | 6.4 | 17.7 | 0.00 | 0.08 | 0.08 | 80 | 1015.5 |
| 20260505192028 | 13 | 285 | 6.4 | 17.7 | 0.00 | 0.08 | 0.08 | 81 | 1015.5 |
| 20260505191554 | 13 | 291 | 6.4 | 14.5 | 0.00 | 0.08 | 0.08 | 80 | 1015.5 |
| 20260505191032 | 13 | 276 | 4.8 | 16.1 | 0.00 | 0.08 | 0.08 | 80 | 1015.4 |
| 20260505190529 | 13 | 296 | 6.4 | 16.1 | 0.00 | 0.08 | 0.08 | 79 | 1015.4 |
| 20260505190040 | 14 | 254 | 6.4 | 16.1 | 0.00 | 0.08 | 0.08 | 80 | 1015.3 |
| 20260505185529 | 14 | 293 | 3.2 | 12.9 | 0.00 | 0.08 | 0.08 | 81 | 1015.3 |
| 20260505185029 | 13 | 279 | 4.8 | 12.9 | 0.00 | 0.08 | 0.08 | 81 | 1015.3 |
| 20260505184538 | 13 | 262 | 4.8 | 12.9 | 0.00 | 0.08 | 0.08 | 82 | 1015.3 |
| 20260505184028 | 13 | 254 | 3.2 | 12.9 | 0.00 | 0.08 | 0.08 | 84 | 1015.3 |
| 20260505183529 | 13 | 218 | 4.8 | 12.9 | 0.00 | 0.08 | 0.08 | 85 | 1015.4 |
| 20260505183044 | 13 | 259 | 3.2 | 11.3 | 0.00 | 0.08 | 0.08 | 86 | 1015.4 |
| 20260505182528 | 13 | 233 | 3.2 | 16.1 | 0.00 | 0.08 | 0.08 | 86 | 1015.4 |
| 20260505182028 | 13 | 251 | 4.8 | 16.1 | 0.00 | 0.08 | 0.08 | 86 | 1015.3 |
| 20260505181542 | 12 | 278 | 1.6 | 11.3 | 0.00 | 0.08 | 0.08 | 88 | 1015.3 |
| 20260505181028 | 12 | 289 | 4.8 | 16.1 | 0.00 | 0.08 | 0.08 | 89 | 1015.3 |
| 20260505180528 | 12 | 277 | 6.4 | 16.1 | 0.00 | 0.08 | 0.08 | 89 | 1015.2 |
| 20260505180052 | 12 | 281 | 3.2 | 12.9 | 0.00 | 0.08 | 0.08 | 89 | 1015.1 |
| 20260505175528 | 11 | 277 | 4.8 | 11.3 | 0.00 | 0.08 | 0.08 | 89 | 1015.1 |
| 20260505175033 | 11 | 279 | 3.2 | 11.3 | 0.00 | 0.08 | 0.08 | 90 | 1015.1 |
| 20260505174555 | 11 | 276 | 4.8 | 11.3 | 0.00 | 0.08 | 0.08 | 90 | 1015.0 |
| 20260505174028 | 11 | 281 | 3.2 | 12.9 | 0.00 | 0.08 | 0.08 | 90 | 1015.0 |
| 20260505173529 | 11 | 281 | 3.2 | 12.9 | 0.00 | 0.08 | 0.08 | 90 | 1014.9 |
| 20260505173046 | 11 | 276 | 4.8 | 9.7 | 0.00 | 0.08 | 0.08 | 90 | 1015.0 |
| 20260505172531 | 11 | 254 | 3.2 | 9.7 | 0.00 | 0.08 | 0.08 | 90 | 1015.0 |
| 20260505172028 | 11 | 223 | 3.2 | 11.3 | 0.00 | 0.08 | 0.08 | 91 | 1015.0 |
| 20260505171545 | 11 | 241 | 3.2 | 11.3 | 0.00 | 0.08 | 0.08 | 90 | 1014.8 |
| 20260505171029 | 11 | 220 | 4.8 | 11.3 | 0.00 | 0.08 | 0.08 | 91 | 1014.9 |
| 20260505170528 | 11 | 226 | 4.8 | 12.9 | 0.00 | 0.08 | 0.08 | 91 | 1014.9 |
| 20260505170107 | 11 | 220 | 3.2 | 12.9 | 0.00 | 0.08 | 0.08 | 91 | 1014.8 |
| 20260505165531 | 11 | 269 | 3.2 | 17.7 | 0.00 | 0.08 | 0.08 | 91 | 1014.9 |
| 20260505165029 | 11 | 231 | 4.8 | 17.7 | 0.00 | 0.08 | 0.08 | 91 | 1014.9 |
| 20260505164545 | 11 | 287 | 1.6 | 11.3 | 0.00 | 0.08 | 0.08 | 90 | 1014.8 |
| 20260505164028 | 11 | 291 | 4.8 | 11.3 | 0.00 | 0.08 | 0.08 | 90 | 1014.9 |
| 20260505163528 | 11 | 284 | 4.8 | 11.3 | 0.00 | 0.08 | 0.08 | 90 | 1014.8 |
| 20260505163043 | 11 | 270 | 3.2 | 11.3 | 0.00 | 0.08 | 0.08 | 90 | 1014.7 |
| 20260505162528 | 11 | 286 | 1.6 | 11.3 | 0.00 | 0.08 | 0.08 | 90 | 1014.7 |
| 20260505162028 | 11 | 298 | 3.2 | 12.9 | 0.00 | 0.08 | 0.08 | 90 | 1014.6 |
| 20260505161554 | 11 | 192 | 4.8 | 12.9 | 0.00 | 0.08 | 0.08 | 90 | 1014.7 |
| 20260505161028 | 11 | 281 | 3.2 | 14.5 | 0.00 | 0.08 | 0.08 | 90 | 1014.5 |
| 20260505160529 | 11 | 278 | 3.2 | 16.1 | 0.00 | 0.08 | 0.08 | 90 | 1014.5 |
| 20260505153054 | 10 | 279 | 3.2 | 11.3 | 0.00 | 0.08 | 0.08 | 90 | 1014.3 |
| 20260505152529 | 10 | 261 | 3.2 | 12.9 | 0.00 | 0.08 | 0.08 | 90 | 1014.2 |
| 20260505152028 | 10 | 263 | 4.8 | 12.9 | 0.00 | 0.08 | 0.08 | 90 | 1014.2 |
| 20260505151548 | 10 | 284 | 3.2 | 12.9 | 0.00 | 0.08 | 0.08 | 90 | 1014.2 |
| 20260505151029 | 11 | 254 | 1.6 | 11.3 | 0.00 | 0.08 | 0.08 | 90 | 1014.2 |
| 20260505150529 | 10 | 0 | 3.2 | 11.3 | 0.00 | 0.08 | 0.08 | 90 | 1014.2 |
| 20260505140528 | 10 | 205 | 4.8 | 8.0 | 0.00 | 0.08 | 0.08 | 90 | 1013.8 |
| 20260505125029 | 10 | 257 | 1.6 | 6.4 | 0.03 | 0.08 | 0.08 | 91 | 1013.7 |
| 20260505124544 | 10 | 254 | 1.6 | 9.7 | 0.03 | 0.08 | 0.08 | 91 | 1013.7 |
| 20260505124028 | 10 | 302 | 1.6 | 11.3 | 0.03 | 0.08 | 0.08 | 91 | 1013.7 |
| 20260505123528 | 10 | 267 | 3.2 | 11.3 | 0.03 | 0.08 | 0.08 | 91 | 1013.6 |
| 20260505123102 | 10 | 209 | 1.6 | 11.3 | 0.03 | 0.08 | 0.08 | 91 | 1013.5 |
| 20260505122528 | 9 | 271 | 3.2 | 11.3 | 0.03 | 0.08 | 0.08 | 91 | 1013.5 |
| 20260505122028 | 10 | 248 | 3.2 | 8.0 | 0.03 | 0.08 | 0.08 | 91 | 1013.5 |
| 20260505121541 | 9 | 248 | 1.6 | 12.9 | 0.03 | 0.08 | 0.08 | 91 | 1013.4 |
| 20260505121028 | 10 | 196 | 4.8 | 12.9 | 0.03 | 0.08 | 0.08 | 91 | 1013.2 |
| 20260505120532 | 10 | 219 | 4.8 | 9.7 | 0.03 | 0.08 | 0.08 | 91 | 1013.3 |
| 20260505120040 | 10 | 252 | 1.6 | 8.0 | 0.03 | 0.08 | 0.08 | 91 | 1013.5 |
| 20260505115529 | 10 | 240 | 3.2 | 8.0 | 0.00 | 0.05 | 0.05 | 91 | 1013.5 |
| 20260505115029 | 10 | 223 | 3.2 | 8.0 | 0.00 | 0.05 | 0.05 | 91 | 1013.6 |
| 20260505114609 | 10 | 262 | 3.2 | 6.4 | 0.00 | 0.05 | 0.05 | 91 | 1013.5 |
| 20260505114029 | 10 | 275 | 1.6 | 8.0 | 0.00 | 0.05 | 0.05 | 91 | 1013.6 |
| 20260505113529 | 10 | 284 | 1.6 | 9.7 | 0.00 | 0.05 | 0.05 | 91 | 1013.7 |
| 20260505113044 | 10 | 276 | 3.2 | 9.7 | 0.00 | 0.05 | 0.05 | 91 | 1013.8 |
| 20260505112531 | 10 | 288 | 1.6 | 6.4 | 0.00 | 0.05 | 0.05 | 91 | 1013.8 |
| 20260505112028 | 10 | 0 | 1.6 | 6.4 | 0.00 | 0.05 | 0.05 | 91 | 1013.8 |
| 20260505111558 | 10 | 0 | 1.6 | 9.7 | 0.00 | 0.05 | 0.05 | 91 | 1013.7 |
| 20260505111029 | 10 | 0 | 1.6 | 9.7 | 0.00 | 0.05 | 0.05 | 91 | 1013.7 |
| 20260505110529 | 10 | 0 | 3.2 | 9.7 | 0.00 | 0.05 | 0.05 | 91 | 1013.6 |
| 20260505102028 | 10 | 213 | 3.2 | 9.7 | 0.03 | 0.08 | 0.05 | 90 | 1013.5 |
| 20260505101546 | 9 | 214 | 3.2 | 11.3 | 0.03 | 0.08 | 0.05 | 89 | 1013.7 |
| 20260505101029 | 10 | 242 | 4.8 | 11.3 | 0.03 | 0.08 | 0.05 | 89 | 1013.6 |
| 20260505100529 | 10 | 215 | 4.8 | 9.7 | 0.03 | 0.08 | 0.05 | 89 | 1013.7 |
| 20260505100037 | 10 | 223 | 3.2 | 8.0 | 0.00 | 0.05 | 0.03 | 89 | 1013.7 |
| 20260505095532 | 10 | 219 | 4.8 | 8.0 | 0.00 | 0.05 | 0.03 | 89 | 1013.8 |
| 20260505095028 | 10 | 219 | 3.2 | 8.0 | 0.00 | 0.05 | 0.03 | 89 | 1013.7 |
| 20260505094548 | 10 | 281 | 1.6 | 6.4 | 0.03 | 0.05 | 0.03 | 89 | 1013.9 |
| 20260505094030 | 10 | 248 | 1.6 | 9.7 | 0.03 | 0.05 | 0.03 | 88 | 1013.9 |
| 20260505093528 | 9 | 270 | 3.2 | 9.7 | 0.03 | 0.05 | 0.03 | 88 | 1014.1 |
| 20260505093043 | 9 | 288 | 3.2 | 6.4 | 0.03 | 0.05 | 0.03 | 88 | 1014.0 |
| 20260505092529 | 9 | 276 | 1.6 | 6.4 | 0.03 | 0.05 | 0.03 | 88 | 1014.1 |
| 20260505092029 | 10 | 286 | 1.6 | 11.3 | 0.03 | 0.05 | 0.03 | 88 | 1014.1 |
| 20260505091539 | 10 | 273 | 3.2 | 11.3 | 0.03 | 0.05 | 0.03 | 88 | 1014.1 |
| 20260505091029 | 10 | 276 | 1.6 | 8.0 | 0.03 | 0.05 | 0.03 | 88 | 1014.2 |
| 20260505090529 | 9 | 269 | 3.2 | 8.0 | 0.03 | 0.05 | 0.03 | 87 | 1014.3 |
| 20260505090048 | 9 | 270 | 1.6 | 6.4 | 0.03 | 0.05 | 0.03 | 87 | 1014.4 |
| 20260505085529 | 10 | 271 | 1.6 | 11.3 | 0.03 | 0.05 | 0.03 | 87 | 1014.3 |
| 20260505085029 | 10 | 292 | 3.2 | 11.3 | 0.03 | 0.05 | 0.03 | 86 | 1014.4 |
| 20260505084545 | 10 | 276 | 1.6 | 9.7 | 0.00 | 0.03 | 0.00 | 87 | 1014.4 |
| 20260505084028 | 10 | 265 | 1.6 | 4.8 | 0.00 | 0.03 | 0.00 | 87 | 1014.4 |
| 20260505083528 | 10 | 278 | 3.2 | 9.7 | 0.00 | 0.03 | 0.00 | 87 | 1014.4 |
| 20260505083059 | 10 | 281 | 3.2 | 9.7 | 0.00 | 0.03 | 0.00 | 87 | 1014.3 |
| 20260505082528 | 9 | 269 | 3.2 | 9.7 | 0.00 | 0.03 | 0.00 | 88 | 1014.3 |
| 20260505082028 | 9 | 279 | 3.2 | 9.7 | 0.00 | 0.03 | 0.00 | 88 | 1014.4 |
| 20260505081548 | 9 | 281 | 3.2 | 9.7 | 0.00 | 0.03 | 0.00 | 88 | 1014.5 |
| 20260505081030 | 9 | 259 | 3.2 | 9.7 | 0.00 | 0.03 | 0.00 | 88 | 1014.6 |
| 20260505080528 | 9 | 266 | 3.2 | 9.7 | 0.00 | 0.03 | 0.00 | 88 | 1014.5 |
| 20260505080043 | 9 | 222 | 3.2 | 9.7 | 0.00 | 0.03 | 0.00 | 88 | 1014.7 |
| 20260505075528 | 9 | 276 | 3.2 | 9.7 | 0.00 | 0.03 | 0.00 | 87 | 1014.7 |
| 20260505075028 | 9 | 241 | 3.2 | 9.7 | 0.00 | 0.03 | 0.00 | 87 | 1014.6 |
| 20260505074543 | 10 | 264 | 3.2 | 11.3 | 0.00 | 0.03 | 0.00 | 86 | 1014.7 |
| 20260505074028 | 10 | 276 | 3.2 | 16.1 | 0.00 | 0.03 | 0.00 | 86 | 1014.7 |
| 20260505073529 | 10 | 286 | 3.2 | 16.1 | 0.00 | 0.03 | 0.00 | 85 | 1014.9 |
| 20260505073037 | 10 | 295 | 3.2 | 14.5 | 0.00 | 0.03 | 0.00 | 84 | 1014.8 |
| 20260505072527 | 10 | 262 | 4.8 | 14.5 | 0.00 | 0.03 | 0.00 | 83 | 1014.8 |
| 20260505072028 | 10 | 283 | 6.4 | 14.5 | 0.00 | 0.03 | 0.00 | 82 | 1014.8 |
| 20260505071544 | 10 | 277 | 4.8 | 16.1 | 0.00 | 0.03 | 0.00 | 82 | 1014.7 |
| 20260505071029 | 10 | 287 | 6.4 | 16.1 | 0.00 | 0.03 | 0.00 | 82 | 1014.6 |
| 20260505070530 | 10 | 271 | 6.4 | 16.1 | 0.00 | 0.03 | 0.00 | 82 | 1014.6 |
| 20260505070049 | 10 | 284 | 4.8 | 12.9 | 0.00 | 0.03 | 0.00 | 83 | 1014.6 |
| 20260505065529 | 10 | 302 | 4.8 | 16.1 | 0.00 | 0.03 | 0.03 | 83 | 1014.6 |
| 20260505065029 | 10 | 288 | 6.4 | 16.1 | 0.00 | 0.03 | 0.03 | 83 | 1014.6 |
| 20260505064556 | 10 | 274 | 6.4 | 16.1 | 0.00 | 0.03 | 0.03 | 83 | 1014.5 |
| 20260505064028 | 10 | 289 | 6.4 | 14.5 | 0.00 | 0.03 | 0.03 | 82 | 1014.6 |
| 20260505063528 | 10 | 286 | 8.0 | 14.5 | 0.00 | 0.03 | 0.03 | 81 | 1014.5 |
| 20260505063049 | 10 | 296 | 6.4 | 14.5 | 0.00 | 0.03 | 0.03 | 81 | 1014.5 |
| 20260505062528 | 10 | 294 | 8.0 | 16.1 | 0.00 | 0.03 | 0.03 | 81 | 1014.4 |
| 20260505062029 | 10 | 287 | 8.0 | 16.1 | 0.00 | 0.03 | 0.03 | 80 | 1014.3 |
| 20260505061542 | 10 | 279 | 6.4 | 16.1 | 0.00 | 0.03 | 0.03 | 81 | 1014.2 |
| 20260505061031 | 10 | 282 | 6.4 | 16.1 | 0.00 | 0.03 | 0.03 | 81 | 1014.3 |
| 20260505060529 | 10 | 267 | 6.4 | 16.1 | 0.00 | 0.03 | 0.03 | 82 | 1014.3 |
| 20260505060040 | 10 | 278 | 6.4 | 14.5 | 0.00 | 0.03 | 0.03 | 82 | 1014.2 |
| 20260505055528 | 10 | 277 | 3.2 | 11.3 | 0.00 | 0.03 | 0.03 | 83 | 1014.3 |
| 20260505055029 | 10 | 282 | 1.6 | 11.3 | 0.00 | 0.03 | 0.03 | 83 | 1014.2 |
| 20260505054539 | 10 | 309 | 3.2 | 12.9 | 0.00 | 0.03 | 0.03 | 83 | 1014.2 |
| 20260505054029 | 10 | 252 | 3.2 | 12.9 | 0.00 | 0.03 | 0.03 | 83 | 1014.2 |
| 20260505053528 | 10 | 276 | 4.8 | 12.9 | 0.00 | 0.03 | 0.03 | 83 | 1014.4 |
| 20260505053038 | 10 | 279 | 4.8 | 12.9 | 0.00 | 0.03 | 0.03 | 83 | 1014.6 |
| 20260505052529 | 10 | 275 | 4.8 | 12.9 | 0.00 | 0.03 | 0.03 | 83 | 1014.5 |
| 20260505052028 | 10 | 277 | 4.8 | 14.5 | 0.00 | 0.03 | 0.03 | 84 | 1014.6 |
| 20260505051544 | 10 | 294 | 4.8 | 14.5 | 0.00 | 0.03 | 0.03 | 84 | 1014.6 |
| 20260505051029 | 10 | 308 | 6.4 | 12.9 | 0.00 | 0.03 | 0.03 | 85 | 1014.7 |
| 20260505050531 | 10 | 304 | 4.8 | 12.9 | 0.00 | 0.03 | 0.03 | 85 | 1015.0 |